Showing default

FLOCK 4G 18, 62680

Orbit data source: Space-Track

FLOCK 4G 18, 62680 is a payload satellite owned by Planet (US) in SSO that was launched on Tue, 14 Jan 2025 UTC via an FALCON 9 launch vehicle from the Air Force Western Test Range (AFWTR). Payload-class satellites include a variety of spacecraft equipped with specific instruments for various scientific and technological missions. These include communications satellites like Starlink; space stations such as the ISS; scientific satellites like the Hubble; Earth observation satellites from companies like Planet Labs, Umbra, and HawkEye 360; GPS; miniature CubeSats for education and research; and military/defense satellites.

Loading next visibility...
Identifier
62680, 2025-009BZ
Orbit
SSO
Country
Flag of USUS
Related business
Manufacturer
Planet
Mission
Operational Commercial Imaging
Bus & Motor
CUBESAT 3U, Unknown motor
Mass
5.7 kg wet, 5.7 kg dry
Launch date (UTC)
2025-01-14 (9 months ago)
Launch vehicle
FALCON 9
Launch site
Air Force Western Test Range (AFWTR)
Object type
Payload
Rocket body
Debris
Shape & HBR
Box + 2 Pan, 1.0 m
Radar Cross Section
0.072 m², Medium (>0.1 m² and < 1m²)

Expand to show TLE details & history
Last TLE update: 1 day ago

TLE from 1 day ago
0 FLOCK 4G 18
1 62680U 25009BZ  25301.46836417  .00014580  00000-0  61636-3 0  9991
2 62680  97.4221  19.9508 0006876  75.2075 284.9924 15.23305987101186
Epoch: 2025-10-28T11:14Z
TLE epoch observation values (Epoch: 2025-10-28T11:14:26.664Z)
Latitude
0.00006°
Longitude
174.28427°
Altitude
497.751 km
Speed
7.616 km/s
True Right ascension
01h 19m 48s
True Declination
0° 00' 00"
Sunlit
Object was in full shadow at epoch
Visualization orbit readout
Latitude
Unknown
Longitude
Unknown
Altitude
Unknown
Speed
Unknown
Apparent Right ascension
Unknown
Apparent Declination
Unknown
Sunlit
N/A
Visualization observer readout
Local Sidereal Time
07:59:24
Azimuth
Unknown
Elevation
Unknown
Doppler factor
Unknown
Orbital elements
Apogee altitude
497.564 km
Perigee altitude
488.115 km
Semi-major axis
6,870.976 km
Eccentricity
0.00069
Inclination
97.4221°
RAAN
19.9508°
Arg. of periapsis
75.2075°
True anomaly
284.91627°
Mean anomaly
284.9924°
Eccentric anomaly
284.95434°
Mean motion
3.81079 °/min
Orbital period
94.47 mins
BSTAR
0.00061636
Loading maneuver chart data...
Computing Atmospheric mass density...
Loading historical data...
Loading historical data...
Loading historical data...
Loading historical data...
Loading historical data...
Loading historical data...
Loading historical data...

Documentation

Showing up to 5 results
|